Terminal Aerodrome Forecast
Issued by NWS

Home | Current Version | Previous Version | Text Only | Print | Product List | Glossary On
Versions: 1 2 3 4 5 6 7 8 9 10 11 12 13 14 15 16 17 18 19 20 21 22
000
FTUS45 KABQ 190800 AAA
TAFROW
TAF AMD
KROW 190859Z 1909/2006 09005KT 4SM RA SCT015 BKN025 OVC040
      TEMPO 1909/1912 SCT007 BKN010
     FM191600 36010KT P6SM VCFG SCT007 BKN015 OVC025
     FM191800 36010KT P6SM SCT025 OVC040
     FM200000 33005KT P6SM SCT025 OVC040=

USA.gov is the U.S. government's official web portal to all federal, state and local government web resources and services.